sat.trackr.live / text

‹ back to catalog

STARLINK-36451

NORAD 67339 · 2026-003F

PAYLOAD ACTIVE UNKNOWN

§ Identity

Operator
Country
US
Launch date
2026-01-09
Launch site
AFETR
Launch vehicle
Mass (kg)
RCS (m²)

Purposes: comms

External: N2YO · Heavens-Above · Gunter

§ Orbital elements

Epoch: 2026-09-19T13:35:21.228288Z

Period
94.27 min
Inclination
43.0004°
Eccentricity
0.0001710
Mean motion
15.27549051 rev/d
Perigee alt
482.0 km
Apogee alt
484.3 km
Semi-major
6,861.3 km
B*
-7.3994e-5
RAAN
212.2544°
Arg perigee
283.9484°
Mean anomaly
76.1177°
Rev number
3,847

§ Raw data

STARLINK-364511 67339U 26003F   26262.56621792 -.00002296  00000+0 -73994-4 0  99912 67339  43.0004 212.2544 0001710 283.9484  76.1177 15.27549051 38478

JSON: /api/v1/satellites/67339 · /tle

For live sub-satellite position, see the globe view (requires WebGL).

§ Visibility from observer

Set your observer location to see the next 7 days of passes ≥ 10°. The values pass through the URL so the page stays shareable.

No JS? Fill the form by hand. The geolocation button needs JavaScript.